LHX1JT LRTR-EDDM

Flight info

Callsign LHX1JT
Flight time 1h 17m
Altitude 38000
Route MOPUG DCT NIPUR DCT LITKU DCT SLC DCT MAREG DCT BAGSI DCT MATIG DCT AMADI Q113 NAPSA NAPSA1B
Aircraft A320/M-SDE3FGHIRWY/LB1

Departure

Time 2026-05-05 19:30
Airport Timișoara Traian Vuia International Airport (LRTR)

Arrival

Time 2026-05-05 20:47
Airport Munich Airport (EDDM)
Time Latitude Longitude Altitude Speed Heading
2026-05-05 19:09 45.81077 21.32080 342 ft 0 kts 200°
2026-05-05 19:21 45.81099 21.32092 345 ft 4 kts 210°
2026-05-05 19:21 45.81117 21.32115 353 ft 4 kts 253°
2026-05-05 19:21 45.81119 21.32134 353 ft 0 kts 290°
2026-05-05 19:24 45.81119 21.32132 353 ft 1 kts 290°
2026-05-05 19:24 45.81123 21.32115 348 ft 2 kts 290°
2026-05-05 19:24 45.81126 21.32103 342 ft 1 kts 290°
2026-05-05 19:24 45.81134 21.32075 348 ft 4 kts 292°
2026-05-05 19:25 45.81152 21.32029 346 ft 8 kts 298°
2026-05-05 19:25 45.81171 21.31957 351 ft 7 kts 289°
2026-05-05 19:25 45.81187 21.31892 350 ft 7 kts 289°
2026-05-05 19:25 45.81201 21.31835 349 ft 6 kts 289°
2026-05-05 19:26 45.81214 21.31784 351 ft 5 kts 289°
2026-05-05 19:26 45.81224 21.31741 347 ft 4 kts 290°
2026-05-05 19:26 45.81234 21.31701 349 ft 6 kts 290°
2026-05-05 19:26 45.81248 21.31646 353 ft 6 kts 290°
2026-05-05 19:27 45.81263 21.31598 346 ft 5 kts 301°
2026-05-05 19:27 45.81287 21.31571 345 ft 4 kts 339°
2026-05-05 19:27 45.81312 21.31576 341 ft 3 kts 18°
2026-05-05 19:27 45.81333 21.31587 341 ft 3 kts 21°
2026-05-05 19:28 45.81377 21.31610 338 ft 9 kts 20°
2026-05-05 19:28 45.81432 21.31638 336 ft 8 kts 19°
2026-05-05 19:28 45.81484 21.31665 340 ft 6 kts 19°
2026-05-05 19:28 45.81504 21.31698 338 ft 4 kts 79°
2026-05-05 19:29 45.81498 21.31735 338 ft 4 kts 110°
2026-05-05 19:29 45.81464 21.31868 339 ft 41 kts 110°
2026-05-05 19:29 45.81280 21.32605 351 ft 112 kts 110°
2026-05-05 19:29 45.80949 21.33918 364 ft 165 kts 110°
2026-05-05 19:30 45.80550 21.35507 950 ft 171 kts 110°
2026-05-05 19:30 45.80147 21.37114 1711 ft 172 kts 114°
2026-05-05 19:30 45.79734 21.38758 2339 ft 184 kts 114°
2026-05-05 19:30 45.79269 21.40575 2736 ft 204 kts 114°
2026-05-05 19:31 45.78754 21.42582 3305 ft 220 kts 114°
2026-05-05 19:31 45.78239 21.44639 4155 ft 224 kts 111°
2026-05-05 19:31 45.78146 21.46899 4985 ft 238 kts 77°
2026-05-05 19:31 45.79037 21.48920 5830 ft 248 kts 40°
2026-05-05 19:32 45.80619 21.49919 6590 ft 257 kts
2026-05-05 19:32 45.82453 21.49837 7098 ft 274 kts 341°
2026-05-05 19:32 45.84116 21.48447 7655 ft 284 kts 309°
2026-05-05 19:32 45.85267 21.46154 8537 ft 286 kts 301°
2026-05-05 19:33 45.86402 21.43778 9460 ft 291 kts 302°
2026-05-05 19:33 45.87561 21.41431 10364 ft 294 kts 303°
2026-05-05 19:33 45.88777 21.39005 11002 ft 308 kts 303°
2026-05-05 19:33 45.90069 21.36422 11432 ft 328 kts 303°
2026-05-05 19:34 45.91434 21.33684 11901 ft 345 kts 303°
2026-05-05 19:34 45.92857 21.30820 12422 ft 359 kts 303°
2026-05-05 19:34 45.94324 21.27863 13097 ft 366 kts 303°
2026-05-05 19:35 45.97488 21.22005 14513 ft 378 kts 317°
2026-05-05 19:35 45.99729 21.19996 15216 ft 383 kts 335°
2026-05-05 19:35 46.02177 21.18447 15947 ft 386 kts 335°
2026-05-05 19:35 46.04600 21.16869 16648 ft 389 kts 334°
2026-05-05 19:36 46.07065 21.15228 17353 ft 392 kts 334°
2026-05-05 19:36 46.09542 21.13559 18043 ft 395 kts 334°
2026-05-05 19:36 46.12036 21.11869 18647 ft 397 kts 333°
2026-05-05 19:36 46.14546 21.10168 19237 ft 400 kts 333°
2026-05-05 19:37 46.17073 21.08460 19840 ft 402 kts 333°
2026-05-05 19:37 46.19614 21.06749 20439 ft 404 kts 333°
2026-05-05 19:37 46.22169 21.05031 21019 ft 406 kts 333°
2026-05-05 19:37 46.24737 21.03304 21588 ft 408 kts 333°
2026-05-05 19:38 46.27286 21.01591 22147 ft 410 kts 334°
2026-05-05 19:38 46.29880 20.99847 22717 ft 412 kts 334°
2026-05-05 19:38 46.32487 20.98094 23274 ft 414 kts 334°
2026-05-05 19:38 46.35108 20.96327 23762 ft 417 kts 333°
2026-05-05 19:39 46.37738 20.94548 24211 ft 418 kts 333°
2026-05-05 19:39 46.40383 20.92755 24644 ft 420 kts 333°
2026-05-05 19:39 46.43036 20.90954 25073 ft 422 kts 333°
2026-05-05 19:39 46.45700 20.89143 25503 ft 424 kts 333°
2026-05-05 19:40 46.48373 20.87326 25927 ft 425 kts 333°
2026-05-05 19:40 46.51023 20.85525 26358 ft 427 kts 333°
2026-05-05 19:40 46.53723 20.83688 26788 ft 429 kts 333°
2026-05-05 19:40 46.56428 20.81844 27194 ft 431 kts 333°
2026-05-05 19:41 46.59148 20.79992 27598 ft 432 kts 333°
2026-05-05 19:41 46.61875 20.78132 27992 ft 434 kts 333°
2026-05-05 19:41 46.64614 20.76262 28371 ft 436 kts 333°
2026-05-05 19:41 46.67362 20.74380 28741 ft 437 kts 333°
2026-05-05 19:42 46.70118 20.72490 29108 ft 439 kts 333°
2026-05-05 19:42 46.72851 20.70616 29442 ft 441 kts 333°
2026-05-05 19:42 46.75632 20.68707 29795 ft 443 kts 333°
2026-05-05 19:42 46.78425 20.66785 30106 ft 445 kts 333°
2026-05-05 19:43 46.81221 20.64859 30487 ft 444 kts 333°
2026-05-05 19:43 46.84010 20.62935 30879 ft 443 kts 333°
2026-05-05 19:43 46.86791 20.61012 31249 ft 442 kts 333°
2026-05-05 19:43 46.89571 20.59090 31624 ft 442 kts 333°
2026-05-05 19:44 46.92348 20.57170 32005 ft 441 kts 333°
2026-05-05 19:44 46.95125 20.55246 32373 ft 441 kts 333°
2026-05-05 19:44 46.97857 20.53350 32742 ft 441 kts 333°
2026-05-05 19:44 47.00624 20.51427 33120 ft 440 kts 333°
2026-05-05 19:45 47.03388 20.49503 33488 ft 440 kts 333°
2026-05-05 19:45 47.06151 20.47580 33860 ft 439 kts 333°
2026-05-05 19:45 47.08911 20.45660 34187 ft 439 kts 333°
2026-05-05 19:45 47.11670 20.43740 34511 ft 439 kts 333°
2026-05-05 19:46 47.14427 20.41818 34823 ft 439 kts 333°
2026-05-05 19:46 47.17186 20.39894 35115 ft 439 kts 333°
2026-05-05 19:46 47.19946 20.37965 35401 ft 439 kts 333°
2026-05-05 19:46 47.22665 20.36059 35679 ft 439 kts 333°
2026-05-05 19:47 47.25424 20.34121 35958 ft 439 kts 333°
2026-05-05 19:47 47.28180 20.32183 36207 ft 440 kts 333°
2026-05-05 19:47 47.30941 20.30239 36460 ft 440 kts 333°
2026-05-05 19:47 47.33705 20.28296 36721 ft 440 kts 333°
2026-05-05 19:48 47.36469 20.26354 36976 ft 440 kts 333°
2026-05-05 19:48 47.39235 20.24412 37215 ft 440 kts 333°
2026-05-05 19:48 47.41999 20.22464 37466 ft 440 kts 333°
2026-05-05 19:48 47.44762 20.20509 37710 ft 440 kts 333°
2026-05-05 19:49 47.47527 20.18545 37877 ft 441 kts 333°
2026-05-05 19:49 47.53018 20.14642 37906 ft 441 kts 333°
2026-05-05 19:50 47.58546 20.10716 37903 ft 441 kts 333°
2026-05-05 19:50 47.64074 20.06772 37901 ft 441 kts 333°
2026-05-05 19:51 47.69610 20.02816 37906 ft 442 kts 333°
2026-05-05 19:51 47.75081 19.98786 37903 ft 442 kts 330°
2026-05-05 19:52 47.80484 19.94431 37899 ft 441 kts 329°
2026-05-05 19:52 47.85857 19.90002 37897 ft 441 kts 329°
2026-05-05 19:53 47.91248 19.85618 37900 ft 442 kts 330°
2026-05-05 19:53 47.96622 19.81289 37897 ft 442 kts 330°
2026-05-05 19:54 48.02044 19.76936 37890 ft 442 kts 330°
2026-05-05 19:54 48.07460 19.72565 37899 ft 443 kts 329°
2026-05-05 19:55 48.12872 19.68167 37893 ft 443 kts 329°
2026-05-05 19:55 48.18277 19.63748 37892 ft 443 kts 329°
2026-05-05 19:56 48.23238 19.58502 37895 ft 439 kts 313°
2026-05-05 19:56 48.26995 19.51365 37888 ft 436 kts 303°
2026-05-05 19:57 48.30456 19.43883 37886 ft 437 kts 303°
2026-05-05 19:57 48.33933 19.36404 37895 ft 437 kts 303°
2026-05-05 19:58 48.37405 19.28898 37891 ft 437 kts 303°
2026-05-05 19:58 48.40834 19.21426 37898 ft 437 kts 302°
2026-05-05 19:59 48.43595 19.13371 37895 ft 432 kts 285°
2026-05-05 19:59 48.44379 19.04483 37888 ft 428 kts 266°
2026-05-05 20:00 48.43524 18.95625 37881 ft 428 kts 259°
2026-05-05 20:00 48.42523 18.86853 37879 ft 428 kts 259°
2026-05-05 20:01 48.41503 18.78031 37894 ft 428 kts 259°
2026-05-05 20:01 48.40479 18.69212 37882 ft 428 kts 259°
2026-05-05 20:02 48.39452 18.60400 37878 ft 428 kts 259°
2026-05-05 20:02 48.38423 18.51651 37866 ft 428 kts 259°
2026-05-05 20:03 48.37383 18.42849 37861 ft 428 kts 259°
2026-05-05 20:03 48.36336 18.34044 37861 ft 427 kts 259°
2026-05-05 20:04 48.35277 18.25264 37865 ft 427 kts 259°
2026-05-05 20:04 48.34221 18.16548 37864 ft 426 kts 259°
2026-05-05 20:05 48.33154 18.07780 37851 ft 426 kts 259°
2026-05-05 20:05 48.32088 17.99019 37839 ft 426 kts 259°
2026-05-05 20:06 48.31009 17.90274 37832 ft 426 kts 259°
2026-05-05 20:06 48.29932 17.81589 37834 ft 425 kts 259°
2026-05-05 20:07 48.28837 17.72865 37825 ft 425 kts 259°
2026-05-05 20:07 48.27746 17.64147 37822 ft 425 kts 259°
2026-05-05 20:08 48.26648 17.55438 37813 ft 425 kts 258°
2026-05-05 20:08 48.25546 17.46794 37811 ft 425 kts 258°
2026-05-05 20:09 48.24430 17.38096 37811 ft 424 kts 258°
2026-05-05 20:09 48.23303 17.29404 37824 ft 424 kts 258°
2026-05-05 20:10 48.22176 17.20728 37805 ft 424 kts 259°
2026-05-05 20:10 48.21047 17.12061 37814 ft 423 kts 259°
2026-05-05 20:11 48.19919 17.03463 37812 ft 423 kts 258°
2026-05-05 20:11 48.18957 16.94776 37803 ft 423 kts 266°
2026-05-05 20:12 48.18630 16.86005 37785 ft 423 kts 266°
2026-05-05 20:12 48.18299 16.77240 37776 ft 423 kts 266°
2026-05-05 20:13 48.17955 16.68505 37777 ft 423 kts 266°
2026-05-05 20:13 48.17593 16.59712 37779 ft 423 kts 266°
2026-05-05 20:14 48.17225 16.50920 37781 ft 423 kts 266°
2026-05-05 20:14 48.16858 16.42126 37795 ft 423 kts 265°
2026-05-05 20:15 48.16482 16.33342 37788 ft 422 kts 265°
2026-05-05 20:15 48.16100 16.24633 37764 ft 422 kts 265°
2026-05-05 20:16 48.15713 16.15868 37759 ft 421 kts 265°
2026-05-05 20:16 48.15317 16.07124 37762 ft 421 kts 265°
2026-05-05 20:17 48.14911 15.98393 37762 ft 420 kts 265°
2026-05-05 20:17 48.14505 15.89726 37769 ft 420 kts 265°
2026-05-05 20:18 48.14090 15.81006 37773 ft 420 kts 265°
2026-05-05 20:18 48.13673 15.72291 37771 ft 420 kts 265°
2026-05-05 20:19 48.13245 15.63574 37765 ft 420 kts 265°
2026-05-05 20:19 48.12810 15.54861 37770 ft 420 kts 265°
2026-05-05 20:20 48.12371 15.46204 37801 ft 420 kts 264°
2026-05-05 20:20 48.11918 15.37501 37798 ft 419 kts 264°
2026-05-05 20:21 48.11459 15.28801 37793 ft 419 kts 264°
2026-05-05 20:21 48.10998 15.20109 37787 ft 419 kts 264°
2026-05-05 20:22 48.10543 15.11484 37785 ft 419 kts 264°
2026-05-05 20:22 48.10075 15.02791 37778 ft 419 kts 264°
2026-05-05 20:23 48.09592 14.94092 37783 ft 420 kts 264°
2026-05-05 20:23 48.09100 14.85387 37785 ft 420 kts 264°
2026-05-05 20:24 48.08603 14.76726 37782 ft 421 kts 264°
2026-05-05 20:24 48.08100 14.68008 37787 ft 421 kts 263°
2026-05-05 20:25 48.07587 14.59283 37809 ft 421 kts 263°
2026-05-05 20:25 48.07076 14.50548 37798 ft 422 kts 263°
2026-05-05 20:26 48.06571 14.41865 37803 ft 422 kts 263°
2026-05-05 20:26 48.06047 14.33122 37802 ft 423 kts 263°
2026-05-05 20:27 48.05809 14.24424 37808 ft 424 kts 268°
2026-05-05 20:27 48.05845 14.15610 37823 ft 424 kts 268°
2026-05-05 20:28 48.05864 14.06832 36880 ft 427 kts 267°
2026-05-05 20:28 48.05872 14.02361 35454 ft 433 kts 267°
2026-05-05 20:28 48.05880 13.97870 34535 ft 428 kts 267°
2026-05-05 20:28 48.05890 13.93467 33764 ft 419 kts 267°
2026-05-05 20:29 48.05898 13.89139 32744 ft 414 kts 267°
2026-05-05 20:29 48.05902 13.84869 31775 ft 409 kts 267°
2026-05-05 20:29 48.05903 13.80638 30835 ft 407 kts 266°
2026-05-05 20:29 48.05902 13.76383 29807 ft 414 kts 266°
2026-05-05 20:30 48.05895 13.72042 28611 ft 421 kts 266°
2026-05-05 20:30 48.05888 13.67732 27914 ft 420 kts 266°
2026-05-05 20:30 48.05880 13.63357 27378 ft 419 kts 266°
2026-05-05 20:30 48.05871 13.59031 26860 ft 414 kts 266°
2026-05-05 20:31 48.05864 13.54758 26349 ft 407 kts 267°
2026-05-05 20:31 48.05942 13.50565 25848 ft 401 kts 269°
2026-05-05 20:31 48.06134 13.46435 25352 ft 395 kts 271°
2026-05-05 20:31 48.06387 13.42381 24867 ft 389 kts 272°
2026-05-05 20:32 48.06656 13.38395 24464 ft 382 kts 272°
2026-05-05 20:32 48.06912 13.34455 24088 ft 379 kts 272°
2026-05-05 20:32 48.07144 13.30592 23722 ft 377 kts 271°
2026-05-05 20:32 48.07360 13.26701 23362 ft 374 kts 271°
2026-05-05 20:33 48.07563 13.22833 22930 ft 372 kts 271°
2026-05-05 20:33 48.07761 13.18990 22475 ft 370 kts 271°
2026-05-05 20:33 48.07955 13.15168 21940 ft 367 kts 271°
2026-05-05 20:33 48.08145 13.11374 21418 ft 365 kts 271°
2026-05-05 20:34 48.08332 13.07605 20902 ft 363 kts 271°
2026-05-05 20:34 48.08518 13.03859 20397 ft 360 kts 271°
2026-05-05 20:34 48.08705 13.00129 19852 ft 359 kts 271°
2026-05-05 20:34 48.08886 12.96465 19330 ft 357 kts 272°
2026-05-05 20:35 48.09069 12.92765 18803 ft 356 kts 272°
2026-05-05 20:35 48.09287 12.89074 18288 ft 356 kts 274°
2026-05-05 20:35 48.09599 12.85410 17733 ft 355 kts 276°
2026-05-05 20:35 48.09963 12.81756 17152 ft 354 kts 277°
2026-05-05 20:36 48.10345 12.78120 16577 ft 354 kts 277°
2026-05-05 20:36 48.10723 12.74485 16012 ft 353 kts 276°
2026-05-05 20:36 48.11086 12.70859 15455 ft 352 kts 276°
2026-05-05 20:36 48.11430 12.67284 14921 ft 351 kts 276°
2026-05-05 20:37 48.11768 12.63670 14383 ft 350 kts 276°
2026-05-05 20:37 48.11993 12.61233 14028 ft 349 kts 276°
2026-05-05 20:37 48.12429 12.56479 13301 ft 347 kts 276°
2026-05-05 20:37 48.12758 12.52911 12726 ft 345 kts 277°
2026-05-05 20:38 48.13437 12.49489 12180 ft 345 kts 296°
2026-05-05 20:38 48.14771 12.46533 11787 ft 340 kts 304°
2026-05-05 20:38 48.16321 12.43904 11408 ft 335 kts 313°
2026-05-05 20:38 48.18008 12.41539 11035 ft 329 kts 314°
2026-05-05 20:39 48.19647 12.39284 10662 ft 316 kts 315°
2026-05-05 20:39 48.21236 12.37118 10302 ft 302 kts 315°
2026-05-05 20:39 48.22777 12.35030 9949 ft 297 kts 315°
2026-05-05 20:39 48.24288 12.32989 9576 ft 287 kts 315°
2026-05-05 20:40 48.25744 12.31029 9167 ft 276 kts 315°
2026-05-05 20:40 48.27146 12.29142 8782 ft 266 kts 315°
2026-05-05 20:40 48.28496 12.27320 8398 ft 257 kts 315°
2026-05-05 20:40 48.29814 12.25534 8021 ft 255 kts 315°
2026-05-05 20:41 48.31107 12.23775 7654 ft 254 kts 315°
2026-05-05 20:41 48.32411 12.21993 7282 ft 253 kts 315°
2026-05-05 20:41 48.33705 12.20214 6924 ft 252 kts 315°
2026-05-05 20:41 48.34990 12.18440 6555 ft 250 kts 315°
2026-05-05 20:42 48.36197 12.16594 6182 ft 244 kts 302°
2026-05-05 20:42 48.36842 12.14325 5868 ft 234 kts 279°
2026-05-05 20:42 48.36839 12.11909 5577 ft 231 kts 263°
2026-05-05 20:42 48.36659 12.09521 5269 ft 228 kts 263°
2026-05-05 20:43 48.36486 12.07206 4974 ft 218 kts 264°
2026-05-05 20:43 48.36321 12.04978 4694 ft 216 kts 264°
2026-05-05 20:43 48.36157 12.02774 4396 ft 208 kts 264°
2026-05-05 20:43 48.35999 12.00649 4134 ft 201 kts 264°
2026-05-05 20:44 48.35847 11.98600 3858 ft 194 kts 264°
2026-05-05 20:44 48.35698 11.96618 3617 ft 189 kts 264°
2026-05-05 20:44 48.35553 11.94677 3387 ft 183 kts 264°
2026-05-05 20:44 48.35413 11.92812 3136 ft 176 kts 264°
2026-05-05 20:45 48.35161 11.89477 2705 ft 142 kts 264°
2026-05-05 20:45 48.35054 11.88052 2511 ft 134 kts 263°
2026-05-05 20:45 48.34951 11.86675 2319 ft 132 kts 263°
2026-05-05 20:46 48.34848 11.85312 2145 ft 132 kts 264°
2026-05-05 20:46 48.34744 11.83945 1982 ft 132 kts 264°
2026-05-05 20:46 48.34639 11.82572 1783 ft 132 kts 263°
2026-05-05 20:46 48.34535 11.81206 1609 ft 132 kts 263°
2026-05-05 20:47 48.34434 11.79846 1484 ft 123 kts 262°
2026-05-05 20:47 48.34353 11.78792 1484 ft 77 kts 264°
2026-05-05 20:47 48.34313 11.78251 1485 ft 28 kts 264°
2026-05-05 20:47 48.34317 11.78011 1485 ft 23 kts 283°
2026-05-05 20:48 48.34373 11.77796 1481 ft 19 kts 293°
2026-05-05 20:48 48.34425 11.77611 1476 ft 20 kts 292°
2026-05-05 20:48 48.34509 11.77443 1482 ft 21 kts 341°
2026-05-05 20:48 48.34613 11.77444 1473 ft 11 kts 26°
2026-05-05 20:49 48.34635 11.77541 1485 ft 10 kts 86°
2026-05-05 20:49 48.34643 11.77638 1485 ft 9 kts 83°
2026-05-05 20:49 48.34650 11.77725 1476 ft 8 kts 83°
2026-05-05 20:49 48.34656 11.77811 1485 ft 10 kts 83°
2026-05-05 20:50 48.34667 11.77955 1478 ft 17 kts 83°
2026-05-05 20:50 48.34676 11.78068 1485 ft 16 kts 83°
2026-05-05 20:50 48.34692 11.78278 1485 ft 14 kts 83°
2026-05-05 20:50 48.34704 11.78420 1485 ft 13 kts 83°
2026-05-05 20:51 48.34715 11.78551 1485 ft 12 kts 85°
2026-05-05 20:51 48.34722 11.78669 1485 ft 11 kts 84°
2026-05-05 20:51 48.34730 11.78779 1485 ft 10 kts 82°
2026-05-05 20:51 48.34740 11.78885 1477 ft 10 kts 82°
2026-05-05 20:52 48.34749 11.79005 1485 ft 13 kts 83°
2026-05-05 20:52 48.34759 11.79138 1485 ft 12 kts 83°
2026-05-05 20:52 48.34768 11.79263 1475 ft 13 kts 83°
2026-05-05 20:52 48.34781 11.79424 1485 ft 17 kts 83°
2026-05-05 20:53 48.34802 11.79543 1473 ft 10 kts 46°
2026-05-05 20:53 48.34865 11.79556 1485 ft 9 kts 353°
2026-05-05 20:53 48.34921 11.79546 1475 ft 8 kts 353°
2026-05-05 20:53 48.34970 11.79555 1485 ft 7 kts 24°
2026-05-05 20:54 48.35006 11.79592 1478 ft 7 kts 34°
2026-05-05 20:54 48.35070 11.79644 1483 ft 14 kts 22°
2026-05-05 20:54 48.35161 11.79642 1477 ft 13 kts 353°
2026-05-05 20:54 48.35202 11.79695 1484 ft 8 kts 84°
2026-05-05 20:55 48.35208 11.79775 1485 ft 7 kts 83°
2026-05-05 20:55 48.35209 11.79792 1485 ft 0 kts 83°
2026-05-05 20:59 48.35209 11.79793 1486 ft 0 kts 83°